CDT,Max TemperatureF,Mean TemperatureF,Min TemperatureF,Max Dew PointF,MeanDew PointF,Min DewpointF,Max Humidity, Mean Humidity, Min Humidity, Max Sea Level PressureIn, Mean Sea Level PressureIn, Min Sea Level PressureIn, Max VisibilityMiles, Mean VisibilityMiles, Min VisibilityMiles, Max Wind SpeedMPH, Mean Wind SpeedMPH, Max Gust SpeedMPH,PrecipitationIn, CloudCover, Events, WindDirDegrees
2013-6-1,89,71,53,59,31,19,61,20,11,30.15,30.05,29.98,10,10,10,30,12,36,0.00,0,,27
2013-6-2,87,74,60,61,56,50,88,56,35,30.31,30.15,30.04,10,10,8,30,15,37,0.19,2,Thunderstorm,72
2013-6-3,89,73,57,57,53,46,88,55,24,30.32,30.11,30.02,10,10,10,23,9,26,0.21,0,Thunderstorm,172
2013-6-4,96,78,60,61,50,32,88,47,12,30.10,30.06,29.99,10,10,10,16,5,33,0.00,0,,263
2013-6-5,96,78,59,52,44,34,72,36,12,30.09,30.04,29.96,10,10,10,14,5,20,0.00,0,,352
2013-6-6,82,71,60,54,51,46,68,48,35,30.11,30.06,30.00,10,10,5,24,12,32,0.00,1,,37
2013-6-7,84,72,60,57,55,45,88,60,35,30.18,30.10,29.99,10,10,9,23,10,30,0.04,2,Thunderstorm,66
2013-6-8,91,74,57,55,49,36,88,47,16,30.10,30.01,29.92,10,10,10,18,7,24,0.01,0,,228
2013-6-9,91,76,62,55,49,43,60,38,21,30.17,30.05,29.98,10,10,10,17,8,23,0.00,0,,128
2013-6-10,91,73,55,59,49,36,77,44,15,30.21,30.15,30.08,10,10,10,18,6,24,0.00,0,,123
2013-6-11,91,73,55,55,50,45,82,45,20,30.19,30.15,30.07,10,10,10,18,7,25,0.00,0,,125
2013-6-12,93,74,55,57,53,45,88,50,19,30.19,30.14,30.07,10,10,5,21,6,25,0.00,0,,109
2013-6-13,82,71,60,63,58,54,94,74,45,30.20,30.15,30.08,10,10,8,20,8,26,0.24,3,Thunderstorm,89
2013-6-14,77,68,60,64,61,57,100,81,54,30.17,30.11,30.05,10,10,8,17,5,23,0.21,3,Thunderstorm,88
2013-6-15,87,72,57,64,59,52,100,69,33,30.18,30.13,30.08,10,9,0,12,4,16,0.00,2,,58
2013-6-16,89,74,59,64,60,54,100,68,31,30.20,30.16,30.12,10,10,9,33,5,40,0.47,1,Thunderstorm,116
2013-6-17,89,76,62,64,62,54,94,74,33,30.22,30.15,30.09,10,10,9,18,5,28,0.12,2,Thunderstorm,103
2013-6-18,86,72,59,64,60,55,94,66,43,30.22,30.16,30.10,10,10,9,16,8,21,0.09,1,,66
2013-6-19,91,76,62,64,58,43,94,57,21,30.15,30.10,30.02,10,10,10,22,8,31,0.00,1,Thunderstorm,144
2013-6-20,91,78,66,63,56,46,83,50,23,30.20,30.13,30.05,10,10,10,22,10,30,0.00,1,Thunderstorm,145
2013-6-21,91,76,62,63,58,52,83,58,28,30.24,30.15,30.06,10,10,8,29,10,38,0.21,1,Thunderstorm,123
2013-6-22,93,78,62,64,60,48,94,66,21,30.16,30.11,30.04,10,10,9,22,6,39,0.03,1,Thunderstorm,141
2013-6-23,91,78,64,63,58,46,94,56,22,30.13,30.07,30.01,10,10,10,18,7,24,0.00,0,,153
2013-6-24,91,78,64,64,59,50,88,57,29,30.14,30.10,30.04,10,10,10,24,6,30,0.00,0,,137
2013-6-25,91,78,64,68,61,52,88,62,26,30.17,30.12,30.06,10,10,5,14,4,48,0.49,0,Thunderstorm,152
2013-6-26,96,79,62,64,54,39,94,50,14,30.17,30.14,30.10,10,10,10,15,5,23,0.00,0,,251
2013-6-27,95,78,60,61,53,45,88,48,20,30.22,30.18,30.16,10,10,10,20,5,24,0.00,1,Thunderstorm,72
2013-6-28,93,74,55,52,45,41,72,38,17,30.27,30.22,30.18,10,10,10,22,7,30,0.00,0,,40
2013-6-29,93,76,60,54,47,39,63,36,15,30.23,30.18,30.12,10,10,10,28,7,37,0.00,1,Thunderstorm,35
2013-6-30,86,76,66,54,50,46,56,40,30,30.21,30.16,30.10,10,10,10,22,8,29,0.00,1,,62